Stations météo

réclame
Mon MeteoGroup
Lerwick, Grande-Bretagne (3005): Température de l'air & dewpoint: 12.01.2020 01:00:00 - 18.01.2020 01:00:00 (GMT)Lerwick, Grande-Bretagne (3005): Température de l'air -20cm & Température de l'air -100cm: 12.01.2020 01:00:00 - 18.01.2020 01:00:00 (GMT)Lerwick, Grande-Bretagne (3005): Vitesse du vent & gusts: 12.01.2020 01:00:00 - 18.01.2020 01:00:00 (GMT)Lerwick, Grande-Bretagne (3005): Direction du vent: 12.01.2020 01:00:00 - 18.01.2020 01:00:00 (GMT)Lerwick, Grande-Bretagne (3005): reduced air pressure: 12.01.2020 01:00:00 - 18.01.2020 01:00:00 (GMT)Lerwick, Grande-Bretagne (3005): visibility: 12.01.2020 01:00:00 - 18.01.2020 01:00:00 (GMT)Lerwick, Grande-Bretagne (3005): Ensoleillement: 12.01.2020 01:00:00 - 18.01.2020 01:00:00 (GMT)Lerwick, Grande-Bretagne (3005): Quantités de précipitations: 12.01.2020 01:00:00 - 18.01.2020 01:00:00 (GMT)
Date & Time tt [°C] td [°C] tt -20cm [°C] tt -100cm [°C] ff [km/h] ff [knt] fx [km/h] fx [knt] dd ppp [hPa] vv [km] sd [min] rr [mm]
18.01.2020 01:00:00 4,9 3,2 - - 52 28 72 39 WNW 1000,2 7 0 0,2
18.01.2020 00:00:00 6,3 2,8 - - 54 29 74 40 W 998,8 19 - 0,0
17.01.2020 23:00:00 6,4 3,2 - - 52 28 76 41 WNW 997,8 17 0 0,2
17.01.2020 22:00:00 6,5 2,8 - - 50 27 80 43 W 996,8 3,2 0 0,4
17.01.2020 21:00:00 6,4 3,7 - - 57 31 87 47 W 996,0 16 0 0,2
17.01.2020 20:00:00 6,4 3,4 - - 61 33 83 45 WSW 995,5 18 0 0,2
17.01.2020 19:00:00 6,6 3,5 - - 63 34 89 48 WSW 994,5 16 0 1,0
17.01.2020 18:00:00 5,7 4,0 - - 63 34 87 47 W 994,2 16 0 1,2
17.01.2020 17:00:00 6,8 3,6 - - 67 36 98 53 SW 993,2 13 0 0,2
17.01.2020 16:00:00 6,8 4,2 - - 67 36 106 57 SW 992,4 10 0 0,4
17.01.2020 15:00:00 6,6 4,2 - - 78 42 102 55 SW 991,5 4,4 0 1,0
17.01.2020 14:00:00 6,3 3,1 - - 68 37 91 49 SW 991,6 6 0 0,0
17.01.2020 13:00:00 6,4 2,7 - - 61 33 93 50 SSW 992,2 14 36 0,0
17.01.2020 12:00:00 6,5 2,0 - - 65 35 85 46 SSW 992,2 13 60 0,0
17.01.2020 11:00:00 6,4 1,5 - - 63 34 85 46 SSW 992,4 16 48 0,0
17.01.2020 10:00:00 6,3 0,9 - - 61 33 83 45 SSW 992,6 15 0 0,0
17.01.2020 09:00:00 6,2 1,7 5,2 6,7 54 29 72 39 SSW 992,8 15 0 0,0
17.01.2020 08:00:00 6,3 1,7 - - 55 30 76 41 SSW 992,9 15 0 0,0
17.01.2020 07:00:00 6,5 2,5 - - 59 32 76 41 SSW 992,7 14 0 0,0
17.01.2020 06:00:00 6,6 2,7 - - 50 27 67 36 SSW 992,6 13 0 0,0
17.01.2020 05:00:00 6,4 4,0 - - 42 23 55 30 SSW 992,6 9 0 0,0
17.01.2020 04:00:00 6,2 3,3 - - 37 20 52 28 SSW 992,3 11 0 0,0
17.01.2020 03:00:00 6,6 3,4 - - 44 24 76 41 SW 991,9 22 0 0,0
17.01.2020 02:00:00 7,0 4,3 - - 44 24 59 32 SW 991,1 19 0 0,0
17.01.2020 01:00:00 7,7 6,0 - - 48 26 67 36 SW 990,7 14 0 0,0
17.01.2020 00:00:00 7,9 6,6 - - 42 23 65 35 SSW 990,3 8 - 0,0
16.01.2020 23:00:00 8,2 6,8 - - 50 27 65 35 SSW 990,0 6 0 0,4
16.01.2020 22:00:00 7,3 7,0 - - 46 25 67 36 S 990,4 3,4 0 1,8
16.01.2020 21:00:00 6,7 6,2 - - 44 24 72 39 S 992,2 3,5 0 3,2
16.01.2020 20:00:00 6,9 5,8 - - 44 24 61 33 SSE 994,0 3,7 0 0,2
16.01.2020 19:00:00 6,9 4,8 - - 48 26 67 36 SSE 996,0 11 0 0,0
16.01.2020 18:00:00 7,0 6,0 - - 37 20 55 30 SSE 997,0 8 0 0,0
16.01.2020 17:00:00 7,2 6,1 - - 34 18 48 26 SSE 998,7 8 0 0,0
16.01.2020 16:00:00 7,0 6,3 - - 31 17 46 25 S 1000,1 7 0 0,2
16.01.2020 15:00:00 7,0 6,2 - - 31 17 - - S 1001,6 5 0 0,2
16.01.2020 14:00:00 7,1 5,3 - - 24 13 - - SSW 1002,7 14 0 0,0
16.01.2020 13:00:00 6,6 4,2 - - 31 17 - - SSW 1003,5 15 30 0,0
16.01.2020 12:00:00 6,6 3,6 - - 31 17 - - SSW 1003,6 21 48 0,0
16.01.2020 11:00:00 6,6 3,5 - - 34 18 57 31 SW 1004,0 20 0 0,0
16.01.2020 10:00:00 6,4 3,4 - - 44 24 61 33 SW 1003,0 21 0 0,0
16.01.2020 09:00:00 6,6 4,1 5,0 6,7 46 25 74 40 WSW 1001,7 11 0 0,0
16.01.2020 08:00:00 6,7 3,3 - - 48 26 78 42 WSW 1000,6 19 0 0,2
16.01.2020 07:00:00 6,8 4,0 - - 55 30 74 40 WSW 999,3 17 0 0,0
16.01.2020 06:00:00 6,7 4,2 - - 61 33 80 43 WSW 998,2 15 0 0,0
16.01.2020 05:00:00 7,2 4,2 - - 57 31 76 41 WSW 997,2 21 0 0,0
16.01.2020 04:00:00 7,0 4,8 - - 54 29 70 38 WSW 995,9 15 0 0,0
16.01.2020 03:00:00 7,0 4,2 - - 50 27 74 40 WSW 994,5 17 0 0,2
16.01.2020 02:00:00 7,1 4,6 - - 42 23 70 38 WSW 992,9 10 0 0,0
16.01.2020 01:00:00 6,6 4,6 - - 54 29 81 44 WSW 991,1 11 0 0,2
16.01.2020 00:00:00 6,7 2,9 - - 57 31 89 48 W 989,0 19 - 0,6
15.01.2020 23:00:00 6,6 3,9 - - 65 35 91 49 W 987,0 5 0 0,6
15.01.2020 22:00:00 7,2 3,5 - - 65 35 89 48 WSW 985,0 18 0 0,0
15.01.2020 21:00:00 7,1 3,6 - - 63 34 89 48 WSW 983,4 20 0 0,0
15.01.2020 20:00:00 7,1 4,0 - - 61 33 83 45 SW 982,2 15 0 0,0
15.01.2020 19:00:00 7,1 4,7 - - 59 32 91 49 SW 981,3 10 0 0,2
15.01.2020 18:00:00 7,1 5,3 - - 52 28 72 39 SW 980,0 11 0 0,2
15.01.2020 17:00:00 6,7 5,2 - - 54 29 80 43 SW 979,4 17 0 0,2
15.01.2020 16:00:00 6,4 4,3 - - 55 30 72 39 SW 978,3 21 0 0,2
15.01.2020 15:00:00 6,1 4,1 - - 55 30 80 43 SW 977,5 11 0 0,0
15.01.2020 14:00:00 5,7 4,1 - - 61 33 81 44 SW 976,8 16 0 0,8
15.01.2020 13:00:00 5,7 3,7 - - 67 36 93 50 SW 976,3 2,9 0 0,2
15.01.2020 12:00:00 6,5 1,9 - - 65 35 87 47 SW 975,6 14 0 0,0
15.01.2020 11:00:00 6,3 1,9 - - 65 35 91 49 SSW 975,0 14 0 0,0
15.01.2020 10:00:00 6,1 2,2 - - 68 37 94 51 SSW 974,4 14 0 0,0
15.01.2020 09:00:00 5,8 1,3 5,0 6,7 72 39 93 50 SSW 974,0 18 0 0,0
15.01.2020 08:00:00 5,4 1,1 - - 67 36 87 47 SSW 973,6 17 0 0,0
15.01.2020 07:00:00 5,1 0,8 - - 55 30 80 43 SSW 973,7 18 0 0,0
15.01.2020 06:00:00 4,8 0,8 - - 54 29 76 41 SSW 973,7 17 0 0,0
15.01.2020 05:00:00 4,8 0,5 - - 52 28 76 41 SW 973,6 19 0 0,0
15.01.2020 04:00:00 4,8 0,7 - - 50 27 68 37 SW 973,7 20 0 0,0
15.01.2020 03:00:00 4,8 0,4 - - 52 28 70 38 SW 973,5 20 0 0,0
15.01.2020 02:00:00 4,9 0,7 - - 50 27 76 41 SW 973,3 17 0 0,0
15.01.2020 01:00:00 4,8 0,1 - - 57 31 72 39 SW 972,7 25 0 0,0
15.01.2020 00:00:00 4,5 0,7 - - 48 26 68 37 SW 972,6 22 - 0,0
14.01.2020 23:00:00 4,6 -0,5 - - 42 23 72 39 SW 972,5 25 0 0,0
14.01.2020 22:00:00 5,1 0,4 - - 46 25 61 33 SW 972,6 29 0 0,0
14.01.2020 21:00:00 4,6 0,3 - - 41 22 61 33 SSW 972,2 21 0 0,0
14.01.2020 20:00:00 4,9 0,0 - - 48 26 63 34 SSW 972,5 20 0 0,0
14.01.2020 19:00:00 5,2 0,5 - - 39 21 59 32 SSW 973,1 15 0 0,0
14.01.2020 18:00:00 5,2 -0,6 - - 48 26 65 35 SSW 973,7 19 0 0,0
14.01.2020 17:00:00 4,9 -0,4 - - 44 24 63 34 SSW 973,9 19 0 0,0
14.01.2020 16:00:00 4,7 0,0 - - 50 27 70 38 SSW 974,1 17 0 0,0
14.01.2020 15:00:00 4,9 0,0 - - 48 26 72 39 SSW 974,6 21 0 0,0
14.01.2020 14:00:00 5,0 0,4 - - 52 28 72 39 SSW 975,1 20 24 0,0
14.01.2020 13:00:00 5,3 0,0 - - 57 31 76 41 SSW 975,2 19 24 0,0
14.01.2020 12:00:00 4,8 0,0 - - 59 32 85 46 SW 974,8 14 0 0,0
14.01.2020 11:00:00 4,9 -1,0 - - 63 34 87 47 SW 974,3 23 0 0,0
14.01.2020 10:00:00 4,7 0,0 - - 57 31 85 46 SW 973,5 17 0 0,0
14.01.2020 09:00:00 4,4 -1,0 5,2 6,7 65 35 85 46 SW 972,6 24 0 0,0
14.01.2020 08:00:00 4,5 -1,2 - - 68 37 96 52 SW 971,7 27 0 0,0
14.01.2020 07:00:00 4,8 -1,1 - - 65 35 80 43 SW 970,8 22 0 0,0
14.01.2020 06:00:00 5,2 -1,2 - - 61 33 80 43 SW 970,5 25 0 0,0
14.01.2020 05:00:00 5,1 1,5 - - 48 26 70 38 SW 970,1 16 0 0,0
14.01.2020 04:00:00 5,7 3,3 - - 46 25 78 42 SSW 969,8 8 0 0,0
14.01.2020 03:00:00 6,3 2,3 - - 55 30 76 41 SSW 969,4 11 0 0,0
14.01.2020 02:00:00 6,5 3,0 - - 55 30 87 47 SSW 969,1 8 0 0,0
14.01.2020 01:00:00 6,8 3,4 - - 59 32 85 46 SSW 968,6 8 0 0,0
14.01.2020 00:00:00 6,9 6,9 - - 59 32 85 46 SSW 968,2 9 - 0,0
13.01.2020 23:00:00 7,3 7,3 - - 67 36 89 48 S 968,2 8 0 0,0
13.01.2020 22:00:00 6,7 5,8 - - 65 35 111 60 S 969,2 4,9 0 0,8
13.01.2020 21:00:00 5,7 4,9 - - 80 43 111 60 S 971,2 2,6 0 2,4
13.01.2020 20:00:00 6,4 - - - 72 39 96 52 S 973,9 3,1 0 1,2
13.01.2020 19:00:00 6,6 6,6 - - 68 37 96 52 S 976,6 8 0 0,0
13.01.2020 18:00:00 6,7 6,6 - - 70 38 94 51 S 979,5 9 0 0,0
13.01.2020 17:00:00 6,5 6,5 - - 67 36 94 51 S 981,6 10 0 0,0
13.01.2020 16:00:00 6,3 6,3 - - 61 33 83 45 S 984,3 13 0 0,0
13.01.2020 15:00:00 6,2 6,2 - - 54 29 76 41 S 986,4 12 0 0,0
13.01.2020 14:00:00 6,4 6,3 - - 57 31 76 41 S 988,6 17 0 0,0
13.01.2020 13:00:00 6,2 6,1 - - 52 28 72 39 SSW 990,3 14 6 0,0
13.01.2020 12:00:00 6,1 4,3 - - 50 27 65 35 SSW 991,7 16 54 0,0
13.01.2020 11:00:00 5,5 3,3 - - 44 24 61 33 SSW 993,1 19 0 0,0
13.01.2020 10:00:00 5,5 2,7 - - 37 20 52 28 SSW 994,1 19 0 0,0
13.01.2020 09:00:00 5,3 2,4 5,0 6,7 35 19 55 30 SSW 995,0 20 0 0,0
13.01.2020 08:00:00 5,1 1,9 - - 42 23 70 38 SSW 995,0 22 0 0,0
13.01.2020 07:00:00 5,5 2,5 - - 54 29 68 37 SW 995,3 22 0 0,0
13.01.2020 06:00:00 5,3 2,1 - - 52 28 72 39 SW 995,2 22 0 0,0
13.01.2020 05:00:00 5,5 2,2 - - 54 29 70 38 SW 995,7 18 0 0,0
13.01.2020 04:00:00 5,8 1,5 - - 57 31 81 44 SW 996,2 22 0 0,0
13.01.2020 03:00:00 6,1 1,2 - - 63 34 83 45 SW 996,5 22 0 0,0
13.01.2020 02:00:00 5,8 2,2 - - 55 30 87 47 SW 997,1 20 0 0,0
13.01.2020 01:00:00 5,5 1,8 - - 50 27 68 37 SW 997,4 18 0 0,0
13.01.2020 00:00:00 4,9 2,0 - - 54 29 78 42 SW 998,1 23 - 0,0
12.01.2020 23:00:00 4,8 2,6 - - 57 31 72 39 SW 998,4 18 0 0,0
12.01.2020 22:00:00 4,5 2,3 - - 54 29 74 40 SW 998,6 22 0 0,2
12.01.2020 21:00:00 4,5 2,2 - - 52 28 72 39 WSW 998,8 15 0 0,2
12.01.2020 20:00:00 5,1 1,8 - - 46 25 72 39 WSW 998,6 18 0 0,0
12.01.2020 19:00:00 3,8 1,7 - - 46 25 76 41 WSW 998,9 25 0 0,6
12.01.2020 18:00:00 4,5 1,8 - - 50 27 85 46 WSW 998,6 20 0 0,2
12.01.2020 17:00:00 4,5 0,9 - - 46 25 70 38 WSW 998,4 27 0 0,2
12.01.2020 16:00:00 3,5 0,8 - - 50 27 87 47 WSW 998,3 35 0 0,2
12.01.2020 15:00:00 3,8 0,4 - - 52 28 70 38 W 998,4 30 0 0,0
12.01.2020 14:00:00 4,8 -0,7 - - 54 29 80 43 W 998,1 26 6 0,0
12.01.2020 13:00:00 4,6 -0,5 - - 54 29 80 43 WSW 998,0 30 24 0,0
12.01.2020 12:00:00 4,9 -0,3 - - 54 29 76 41 W 997,9 23 6 0,0
12.01.2020 11:00:00 2,8 -1,1 - - 61 33 94 51 W 998,0 45 0 0,0
12.01.2020 10:00:00 2,0 1,1 - - 52 28 72 39 W 998,0 6 0 1,2
12.01.2020 09:00:00 3,3 1,5 5,5 6,7 46 25 76 41 WSW 997,8 28 0 0,4
12.01.2020 08:00:00 3,5 0,9 - - 57 31 80 43 SW 997,4 30 0 0,6
12.01.2020 07:00:00 3,9 1,8 - - 57 31 76 41 WSW 997,6 9 0 0,2
12.01.2020 06:00:00 2,9 0,6 - - 55 30 83 45 WSW 998,0 14 0 1,4
12.01.2020 05:00:00 4,3 0,7 - - 48 26 83 45 WSW 998,4 30 0 0,2
12.01.2020 04:00:00 4,8 0,7 - - 55 30 78 42 W 998,1 24 0 0,0
12.01.2020 03:00:00 5,2 -1,0 - - 52 28 76 41 W 997,8 29 0 0,0
12.01.2020 02:00:00 4,2 1,1 - - 55 30 83 45 WNW 997,8 19 0 0,4
12.01.2020 01:00:00 5,3 0,4 - - 48 26 67 36 NW 997,4 25 0 0,0

tt = Température de l'air
td = dewpoint
tt -20cm = Température de l'air -20cm
tt -100cm = Température de l'air -100cm
ff = Vitesse du vent
fx = gusts
dd = Direction du vent
ppp = reduced air pressure
vv = visibility
sd = Ensoleillement
rr = Quantités de précipitations

stations d'obs. à proximité